ABS-2A (MONGOLSAT-1)

Last updated on Jan. 20, 2021, 6:22 a.m. UTC

1 41588U 16038A   21019.70539139 -.00000079  00000-0  00000-0 0  9991
2 41588   0.0090  65.4349 0001517 184.1292 198.3799  1.00271381 16915
UTC
Height (km)
Latitude
Longitude
Inclination
Orbital Period
UTC large
Height (km)
Speed (km/s)
/
Latitude / Longitude
Inclination (degrees)
Orbital Period (minutes)
Azimuth
Elevation
Range (km)
Doppler Factor
iOS Compass Heading
iOS Angle

Next 30 passes for location: Hong Kong

Rise time Rise Azimuth (degrees) Set time Set Azimuth (degrees) Duration Max altitude (degrees)

No matching passes for this satellites